CCA4379 ZUCK-ZJHK

Flight info

Callsign CCA4379
Flight time N/A
Altitude 33100
Route VILUS W180 ELBAV W181 P478 H68 P479 R339 BHY W70 NYB
Aircraft A21N/M-SDE3FGHIRWYZ/EB1

Departure

Time N/A
Airport Chongqing Jiangbei International Airport (ZUCK)

Arrival

Time 2026-04-27 04:26
Airport Haikou Meilan International Airport (ZJHK)
Time Latitude Longitude Altitude Speed Heading
2026-04-27 03:25 24.27280 108.08495 33025 ft 464 kts 193°
2026-04-27 03:26 24.21006 108.06510 33024 ft 464 kts 202°
2026-04-27 03:26 24.15508 108.04154 33022 ft 465 kts 203°
2026-04-27 03:27 24.09310 108.01466 33018 ft 465 kts 202°
2026-04-27 03:27 24.03304 107.98878 33012 ft 466 kts 203°
2026-04-27 03:28 23.97247 107.96275 33013 ft 467 kts 203°
2026-04-27 03:28 23.91157 107.93664 33017 ft 467 kts 203°
2026-04-27 03:29 23.85094 107.91065 33019 ft 467 kts 203°
2026-04-27 03:29 23.79047 107.88477 33017 ft 467 kts 204°
2026-04-27 03:30 23.73030 107.85906 33010 ft 466 kts 204°
2026-04-27 03:30 23.66973 107.83322 33006 ft 466 kts 204°
2026-04-27 03:31 23.61052 107.80795 33005 ft 466 kts 204°
2026-04-27 03:31 23.55009 107.78220 33005 ft 466 kts 204°
2026-04-27 03:32 23.48955 107.75639 33002 ft 466 kts 204°
2026-04-27 03:32 23.42948 107.73084 33001 ft 466 kts 204°
2026-04-27 03:33 23.36858 107.70492 32996 ft 465 kts 204°
2026-04-27 03:33 23.30843 107.67939 32993 ft 466 kts 204°
2026-04-27 03:34 23.24782 107.65366 32992 ft 466 kts 204°
2026-04-27 03:34 23.18728 107.62819 32990 ft 466 kts 202°
2026-04-27 03:34 23.15570 107.61968 32989 ft 470 kts 191°
2026-04-27 03:35 23.12329 107.61748 32993 ft 474 kts 181°
2026-04-27 03:35 23.09008 107.62174 32997 ft 477 kts 170°
2026-04-27 03:35 23.05853 107.63233 32999 ft 479 kts 159°
2026-04-27 03:35 23.02868 107.64925 33000 ft 482 kts 148°
2026-04-27 03:36 23.00257 107.67137 32999 ft 484 kts 137°
2026-04-27 03:36 22.95587 107.72462 32997 ft 486 kts 133°
2026-04-27 03:37 22.90988 107.77856 32990 ft 485 kts 134°
2026-04-27 03:37 22.86347 107.83230 32993 ft 485 kts 134°
2026-04-27 03:38 22.81702 107.88570 32993 ft 488 kts 134°
2026-04-27 03:38 22.77020 107.93941 32994 ft 488 kts 135°
2026-04-27 03:39 22.72364 107.99273 32995 ft 488 kts 135°
2026-04-27 03:39 22.67697 108.04614 32999 ft 488 kts 135°
2026-04-27 03:40 22.63004 108.09979 33004 ft 489 kts 135°
2026-04-27 03:40 22.58365 108.15334 33007 ft 491 kts 134°
2026-04-27 03:41 22.53939 108.20987 33009 ft 492 kts 132°
2026-04-27 03:41 22.49543 108.26672 33007 ft 493 kts 133°
2026-04-27 03:42 22.45135 108.32362 33006 ft 493 kts 133°
2026-04-27 03:42 22.40698 108.38071 33003 ft 492 kts 133°
2026-04-27 03:43 22.36314 108.43708 32999 ft 492 kts 133°
2026-04-27 03:43 22.31891 108.49391 32999 ft 493 kts 134°
2026-04-27 03:44 22.27483 108.55043 32999 ft 494 kts 134°
2026-04-27 03:44 22.23047 108.60731 32999 ft 494 kts 134°
2026-04-27 03:45 22.18630 108.66390 32999 ft 494 kts 135°
2026-04-27 03:45 22.14212 108.72040 33002 ft 494 kts 135°
2026-04-27 03:46 22.09782 108.77705 33005 ft 494 kts 135°
2026-04-27 03:46 22.05379 108.83350 33004 ft 494 kts 135°
2026-04-27 03:47 22.01139 108.88779 33000 ft 496 kts 135°
2026-04-27 03:47 21.96691 108.94476 32999 ft 496 kts 135°
2026-04-27 03:48 21.92262 109.00135 32984 ft 496 kts 135°
2026-04-27 03:48 21.87810 109.05823 32977 ft 498 kts 135°
2026-04-27 03:49 21.83360 109.11508 32991 ft 498 kts 135°
2026-04-27 03:49 21.78906 109.17223 32991 ft 499 kts 135°
2026-04-27 03:50 21.74443 109.22955 32828 ft 499 kts 135°
2026-04-27 03:50 21.72198 109.25836 32576 ft 497 kts 135°
2026-04-27 03:50 21.69983 109.28677 32324 ft 494 kts 135°
2026-04-27 03:50 21.67786 109.31493 32069 ft 491 kts 135°
2026-04-27 03:51 21.65618 109.34269 31817 ft 488 kts 135°
2026-04-27 03:51 21.63396 109.37036 31555 ft 487 kts 138°
2026-04-27 03:51 21.61051 109.39647 31300 ft 484 kts 141°
2026-04-27 03:51 21.58577 109.42079 31046 ft 482 kts 145°
2026-04-27 03:52 21.55975 109.44337 30797 ft 478 kts 149°
2026-04-27 03:52 21.53238 109.46423 30541 ft 476 kts 153°
2026-04-27 03:52 21.50423 109.48299 30270 ft 473 kts 155°
2026-04-27 03:52 21.47572 109.50060 29815 ft 475 kts 156°
2026-04-27 03:53 21.44720 109.51807 29221 ft 474 kts 156°
2026-04-27 03:53 21.41867 109.53561 28583 ft 475 kts 155°
2026-04-27 03:53 21.38997 109.55330 28024 ft 472 kts 155°
2026-04-27 03:53 21.36155 109.57089 27526 ft 467 kts 155°
2026-04-27 03:54 21.33321 109.58688 27016 ft 458 kts 161°
2026-04-27 03:54 21.30383 109.59839 26550 ft 446 kts 169°
2026-04-27 03:54 21.27371 109.60543 26060 ft 436 kts 176°
2026-04-27 03:54 21.24361 109.61004 25538 ft 432 kts 177°
2026-04-27 03:55 21.21386 109.61418 25037 ft 428 kts 177°
2026-04-27 03:55 21.18453 109.61824 24563 ft 424 kts 177°
2026-04-27 03:55 21.15564 109.62229 24081 ft 421 kts 177°
2026-04-27 03:55 21.12642 109.62643 23555 ft 418 kts 177°
2026-04-27 03:56 21.09758 109.63055 23051 ft 415 kts 176°
2026-04-27 03:56 21.06939 109.63460 22556 ft 412 kts 176°
2026-04-27 03:56 21.04085 109.63872 22051 ft 410 kts 176°
2026-04-27 03:56 21.01259 109.64281 21571 ft 406 kts 176°
2026-04-27 03:57 20.98481 109.64683 21074 ft 404 kts 176°
2026-04-27 03:57 20.95692 109.65086 20596 ft 401 kts 176°
2026-04-27 03:57 20.92948 109.65484 20088 ft 398 kts 176°
2026-04-27 03:57 20.90171 109.65887 19573 ft 395 kts 176°
2026-04-27 03:58 20.87458 109.66273 19065 ft 393 kts 176°
2026-04-27 03:58 20.84732 109.66663 18561 ft 391 kts 175°
2026-04-27 03:58 20.82043 109.67051 18044 ft 390 kts 175°
2026-04-27 03:58 20.79340 109.67440 17522 ft 389 kts 175°
2026-04-27 03:59 20.76678 109.67825 17027 ft 387 kts 175°
2026-04-27 03:59 20.74011 109.68210 16523 ft 386 kts 175°
2026-04-27 03:59 20.71371 109.68592 16014 ft 383 kts 175°
2026-04-27 03:59 20.68714 109.68975 15495 ft 382 kts 175°
2026-04-27 04:00 20.66064 109.69359 14998 ft 380 kts 175°
2026-04-27 04:00 20.63437 109.69737 14505 ft 379 kts 175°
2026-04-27 04:00 20.60802 109.70120 14003 ft 377 kts 175°
2026-04-27 04:00 20.58213 109.70498 13512 ft 375 kts 175°
2026-04-27 04:01 20.55648 109.70861 13065 ft 371 kts 175°
2026-04-27 04:01 20.53111 109.71239 12835 ft 360 kts 175°
2026-04-27 04:01 20.50684 109.71775 12679 ft 350 kts 162°
2026-04-27 04:01 20.48548 109.72958 12378 ft 347 kts 146°
2026-04-27 04:02 20.46696 109.74587 11979 ft 344 kts 141°
2026-04-27 04:02 20.44891 109.76278 11557 ft 341 kts 139°
2026-04-27 04:02 20.43141 109.77972 11159 ft 338 kts 141°
2026-04-27 04:02 20.41406 109.79621 10741 ft 335 kts 142°
2026-04-27 04:03 20.39657 109.81228 10370 ft 331 kts 141°
2026-04-27 04:03 20.37915 109.82828 10012 ft 323 kts 141°
2026-04-27 04:03 20.36267 109.84364 9913 ft 301 kts 142°
2026-04-27 04:03 20.34690 109.85825 9770 ft 299 kts 141°
2026-04-27 04:04 20.33116 109.87234 9422 ft 295 kts 140°
2026-04-27 04:04 20.31581 109.88650 9077 ft 290 kts 140°
2026-04-27 04:04 20.30070 109.90080 8724 ft 287 kts 141°
2026-04-27 04:04 20.28570 109.91477 8399 ft 283 kts 142°
2026-04-27 04:05 20.27060 109.92838 8060 ft 280 kts 141°
2026-04-27 04:05 20.25616 109.94188 7741 ft 277 kts 141°
2026-04-27 04:05 20.24162 109.95514 7416 ft 274 kts 142°
2026-04-27 04:05 20.22713 109.96854 7107 ft 271 kts 141°
2026-04-27 04:06 20.21292 109.98147 6812 ft 270 kts 141°
2026-04-27 04:06 20.19866 109.99474 6495 ft 268 kts 141°
2026-04-27 04:06 20.18480 110.00768 6169 ft 266 kts 142°
2026-04-27 04:07 20.15690 110.03304 5537 ft 261 kts 139°
2026-04-27 04:07 20.14313 110.04576 5208 ft 259 kts 140°
2026-04-27 04:07 20.12954 110.05822 4891 ft 257 kts 140°
2026-04-27 04:07 20.11610 110.07078 4578 ft 255 kts 141°
2026-04-27 04:08 20.10262 110.08324 4237 ft 259 kts 141°
2026-04-27 04:08 20.08908 110.09551 3892 ft 258 kts 140°
2026-04-27 04:08 20.07550 110.10780 3631 ft 252 kts 140°
2026-04-27 04:08 20.06237 110.11995 3542 ft 238 kts 140°
2026-04-27 04:09 20.05029 110.13098 3505 ft 224 kts 142°
2026-04-27 04:09 20.03684 110.13861 3371 ft 213 kts 169°
2026-04-27 04:09 20.02223 110.13850 3199 ft 211 kts 184°
2026-04-27 04:09 20.00746 110.13786 3058 ft 206 kts 179°
2026-04-27 04:10 19.99344 110.13803 2911 ft 197 kts 172°
2026-04-27 04:10 19.98104 110.14309 2758 ft 186 kts 144°
2026-04-27 04:10 19.97124 110.15162 2629 ft 177 kts 139°
2026-04-27 04:10 19.96284 110.16046 2552 ft 166 kts 131°
2026-04-27 04:11 19.95565 110.17028 2370 ft 166 kts 128°
2026-04-27 04:11 19.95108 110.18137 2156 ft 171 kts 99°
2026-04-27 04:11 19.95090 110.19403 2002 ft 169 kts 99°
2026-04-27 04:11 19.94875 110.20618 1997 ft 167 kts 107°
2026-04-27 04:12 19.94597 110.21825 1989 ft 168 kts 108°
2026-04-27 04:12 19.94305 110.23040 1989 ft 167 kts 109°
2026-04-27 04:12 19.93952 110.24217 1989 ft 167 kts 111°
2026-04-27 04:12 19.93654 110.25427 1991 ft 168 kts 104°
2026-04-27 04:13 19.93502 110.26686 1986 ft 169 kts 98°
2026-04-27 04:13 19.93452 110.27942 1987 ft 170 kts 95°
2026-04-27 04:13 19.93443 110.29191 1982 ft 170 kts 94°
2026-04-27 04:13 19.93445 110.30467 1981 ft 171 kts 94°
2026-04-27 04:14 19.93448 110.31722 1982 ft 171 kts 94°
2026-04-27 04:14 19.93451 110.32999 1980 ft 172 kts 94°
2026-04-27 04:14 19.93453 110.34238 1839 ft 162 kts 93°
2026-04-27 04:14 19.93458 110.35381 1625 ft 148 kts 94°
2026-04-27 04:15 19.93459 110.36474 1438 ft 146 kts 94°
2026-04-27 04:15 19.93460 110.37555 1250 ft 145 kts 95°
2026-04-27 04:15 19.93462 110.38619 1072 ft 145 kts 95°
2026-04-27 04:15 19.93471 110.39703 908 ft 146 kts 94°
2026-04-27 04:16 19.93469 110.40772 697 ft 145 kts 92°
2026-04-27 04:16 19.93458 110.41839 528 ft 146 kts 93°
2026-04-27 04:16 19.93466 110.42919 318 ft 143 kts 92°
2026-04-27 04:16 19.93475 110.43981 135 ft 144 kts 93°
2026-04-27 04:17 19.93474 110.45026 170 ft 145 kts 93°
2026-04-27 04:17 19.93504 110.46117 728 ft 149 kts 91°
2026-04-27 04:17 19.93464 110.47194 1292 ft 148 kts 113°
2026-04-27 04:17 19.92747 110.47885 1916 ft 147 kts 166°
2026-04-27 04:18 19.91747 110.47743 2360 ft 152 kts 197°
2026-04-27 04:18 19.90870 110.46999 2641 ft 173 kts 226°
2026-04-27 04:18 19.90154 110.45875 2915 ft 194 kts 243°
2026-04-27 04:18 19.89821 110.44430 2991 ft 208 kts 256°
2026-04-27 04:19 19.89601 110.42876 2996 ft 215 kts 257°
2026-04-27 04:19 19.89426 110.41279 2985 ft 218 kts 263°
2026-04-27 04:19 19.89423 110.39665 2985 ft 219 kts 267°
2026-04-27 04:19 19.89453 110.38066 2985 ft 219 kts 268°
2026-04-27 04:20 19.89489 110.36442 2984 ft 219 kts 268°
2026-04-27 04:20 19.89526 110.34835 2947 ft 219 kts 267°
2026-04-27 04:20 19.89566 110.33200 2710 ft 218 kts 268°
2026-04-27 04:20 19.89607 110.31628 2469 ft 211 kts 268°
2026-04-27 04:21 19.89656 110.30083 2221 ft 204 kts 270°
2026-04-27 04:21 19.90119 110.28701 2012 ft 197 kts 306°
2026-04-27 04:21 19.91219 110.27974 1947 ft 183 kts 351°
2026-04-27 04:21 19.92440 110.28192 1958 ft 175 kts 36°
2026-04-27 04:22 19.93157 110.29147 1976 ft 165 kts 75°
2026-04-27 04:22 19.93384 110.30333 1985 ft 162 kts 90°
2026-04-27 04:22 19.93443 110.31527 1981 ft 160 kts 93°
2026-04-27 04:22 19.93457 110.32712 1973 ft 159 kts 95°
2026-04-27 04:23 19.93458 110.33880 1895 ft 155 kts 95°
2026-04-27 04:23 19.93460 110.35001 1682 ft 146 kts 95°
2026-04-27 04:23 19.93461 110.36067 1500 ft 143 kts 96°
2026-04-27 04:23 19.93461 110.37115 1334 ft 142 kts 94°
2026-04-27 04:24 19.93461 110.38171 1157 ft 141 kts 92°
2026-04-27 04:24 19.93465 110.39210 981 ft 142 kts 95°
2026-04-27 04:24 19.93468 110.40255 792 ft 141 kts 95°
2026-04-27 04:24 19.93477 110.41298 600 ft 141 kts 92°
2026-04-27 04:25 19.93474 110.42351 408 ft 142 kts 94°
2026-04-27 04:25 19.93468 110.43397 229 ft 141 kts 92°
2026-04-27 04:25 19.93473 110.44421 87 ft 134 kts 93°
2026-04-27 04:25 19.93476 110.45280 83 ft 92 kts 89°
2026-04-27 04:26 19.93479 110.45779 83 ft 43 kts 88°
2026-04-27 04:26 19.93496 110.46001 82 ft 26 kts 74°
2026-04-27 04:26 19.93554 110.46137 82 ft 16 kts 64°
2026-04-27 04:26 19.93617 110.46229 82 ft 15 kts
2026-04-27 04:27 19.93655 110.46185 82 ft 8 kts 244°
2026-04-27 04:27 19.93658 110.46125 82 ft 8 kts 276°
2026-04-27 04:27 19.93662 110.46055 82 ft 11 kts 270°
2026-04-27 04:27 19.93689 110.45975 82 ft 13 kts 352°
2026-04-27 04:28 19.93800 110.45973 82 ft 16 kts 359°
2026-04-27 04:28 19.93896 110.45934 82 ft 15 kts 281°
2026-04-27 04:28 19.93898 110.45819 82 ft 9 kts 270°
2026-04-27 04:28 19.93898 110.45742 82 ft 10 kts 269°
2026-04-27 04:29 19.93898 110.45658 82 ft 11 kts 270°
2026-04-27 04:29 19.93914 110.45576 82 ft 11 kts 310°
2026-04-27 04:29 19.93966 110.45535 82 ft 7 kts 326°
2026-04-27 04:29 19.93976 110.45528 82 ft 0 kts 326°